AirNav   Air Wisconsin pilot careers
 
 887 users online  

C71 Crosby Municipal Airport
Crosby, Mississippi, USA

GOING TO CROSBY?


FAA INFORMATION EFFECTIVE 11 OCTOBER 2018

Location

FAA Identifier: C71
Lat/Long: 31-17-47.0450N / 091-03-09.1350W
31-17.784083N / 091-03.152250W
31.2964014 / -91.0525375
(estimated)
Elevation: 336 ft. / 102.4 m (surveyed)
Variation: 03E (1985)
From city: 1 mile NE of CROSBY, MS
Time zone: UTC -5 (UTC -6 during Standard Time)
Zip code: 39633

Airport Operations

Airport use: Open to the public
Control tower: no
ARTCC: HOUSTON CENTER
FSS: GREENWOOD FLIGHT SERVICE STATION
NOTAMs facility: GWO (NOTAM-D service available)
Attendance: UNATNDD
Wind indicator: lighted
Segmented circle: yes

Airport Communications

CTAF: 122.9

Nearby radio navigation aids

VOR radial/distance  VOR name  Freq  Var
HEZr144/23.1NATCHEZ VOR/DME110.0003E

 
NDB name  Hdg/Dist  Freq  Var  ID
NATCHEZ-ADAMS COUNTY152/26.638800EHAH .... .- ....

Airport Services

Parking: tiedowns
Airframe service: NONE
Powerplant service: NONE
Bottled oxygen: NONE
Bulk oxygen: NONE

Runway Information

Runway 17/35

Dimensions: 3127 x 60 ft. / 953 x 18 m
Surface: asphalt, in good condition
Weight bearing capacity: 
Single wheel: 16.0
RUNWAY 17  RUNWAY 35
Latitude: 31-18.042000N31-17.526167N
Longitude: 091-03.152000W091-03.152500W
Elevation: 328.0 ft.324.0 ft.
Traffic pattern: leftleft
Runway heading: 177 magnetic, 180 true357 magnetic, 360 true
Markings: basic, in poor conditionbasic, in poor condition
Obstructions: 51 ft. trees, 330 ft. from runway, 100 ft. right of centerline, 2:1 slope to clear
3-23 FT TREES & BUSHES 120 FT EITHER SIDE OF RY.
28 ft. trees, 260 ft. from runway, 50 ft. left of centerline, 1:1 slope to clear
3-20 FT TREES & BUSHES 120 FT EITHER SIDE OF RY.

Airport Ownership and Management from official FAA records

Ownership: Publicly-owned
Owner: CITY OF CROSBY
BOX 338
CROSBY, MS 39633
Phone 601-639-4516
GLEN HALL, MAYOR.
Manager: GLEN HALL
BOX 338
CROSBY, MS 39633
Phone (601) 639-4516
CELL PHONE (601) 730-8230.

Airport Operational Statistics

Aircraft operations: avg 61/month *
96% transient general aviation
4% military
* for 12-month period ending 03 May 2018

Additional Remarks

DEER ON & INVOF ARPT.
RWY MARKINGS ARE BADLY FADED AND NEED TO BE RE-STRIPED.

Instrument Procedures

There are no published instrument procedures at C71.

Some nearby airports with instrument procedures:

KHEZ - Hardy-Anders Field Natchez-Adams County Airport (23 nm NW)
0R4 - Concordia Parish Airport (28 nm NW)
KMCB - Mc Comb (Pike County) Airport/John E Lewis Field (31 nm E)
1R7 - Brookhaven-Lincoln County Airport (38 nm NE)
KHZR - False River Regional Airport (41 nm SW)
 
Loc | Ops | Rwys | IFR | FBO | Links
Com | Nav | Svcs | Stats | Notes


 
Area around C71 (Crosby Municipal Airport)
 
Road maps at: MapQuest Bing Google
 
Aerial photo
WARNING: Photo may not be current or correct
Aerial photo of C71 (Crosby Municipal Airport)
Do you have a better or more recent aerial photo of Crosby Municipal Airport that you would like to share? If so, please send us your photo.

 
Sectional chart

 
Airport distance calculator
Flying to Crosby Municipal Airport? Find the distance to fly.

From to C71

Sunrise and sunset
Times for 19-Oct-2018
 Local
(UTC-5)
 Zulu
(UTC)
Morning civil twilight06:4611:46
Sunrise07:1112:11
Sunset18:2723:27
Evening civil twilight18:5223:52

Current date and time
Zulu (UTC)  20-Oct-2018 01:31:17
Local (UTC-5)  19-Oct-2018 20:31:17
 
METAR
KHEZ 
23nm NW 
200056Z AUTO 00000KT 10SM CLR 22/22 A3011 RMK AO2 SLP197 T02220217 PNO $
K0R4 
28nm NW 
200115Z AUTO 01003KT 10SM CLR 24/21 A3009 RMK AO2 T02390205
KMCB 
31nm E 
200053Z AUTO 00000KT 10SM CLR 23/19 A3011 RMK AO2 SLP192 T02330194
KHZR 
41nm SW 
200117Z AUTO 00000KT 10SM SCT040 SCT050 23/22 A3010 RMK AO2
TAF
KMCB 
31nm E 
191742Z 1918/2018 VRB03KT P6SM FEW060 SCT250 FM200200 00000KT P6SM BKN045 BKN250 FM201000 00000KT 4SM BR SCT030 BKN070 FM201100 00000KT 3SM BR BKN008 BKN030 FM201200 00000KT 2SM BR BKN003 BKN025 FM201400 VRB03KT 5SM BR VCSH BKN015
NOTAMs
Click for the latest NOTAMs
NOTAMs are issued by the DoD/FAA and will open in a separate window not controlled by AirNav.

 

 
 

Would you like to see your business listed on this page?

 If your business provides an interesting product or service to pilots, flight crews, aircraft, or users of the Crosby Municipal Airport, you should consider listing it here.  To start the listing process, click on the button below
 
Add a business
 

Other Pages about Crosby Municipal Airport

Update a link
 
Copyright © AirNav, LLC. All rights reserved. Privacy Policy  Contact